[[{"header":{"parameterUnit":"m.s-1","parameterCategory":1,"la1":30.2991,"la2":30.254,"lo1":-89.0895,"lo2":-89.0444,"dy":0.0017,"dx":0.0017,"nx":28,"ny":28,"refTime":"2024-04-07T03:00:00:Z","depth":0,"parameterNumber":2,"parameterNumberName":"U-component_of_WINDS"},"data":[0,0,0,0,0,0,0,0,0,0,0,0,0,0,0,0,0,0,0,0,0,0,0,0,0,0,0,0,0,0,0,0,0,0,0,0,0,0,0,0,0,0,0,0,0,0,0,0,0,0,0,0,0,0,0,0,0,0,-5.7428,-5.7429,0,-5.756,-5.7561,-5.7563,-5.7558,-5.7556,-5.7554,-5.7553,-5.7685,-5.769,-5.7695,0,0,0,0,0,0,0,0,0,0,0,0,0,-5.717,-5.7175,-5.7428,-5.7429,-5.7431,-5.7559,-5.7561,-5.7563,-5.7558,-5.7556,-5.7554,-5.7552,-5.7683,-5.769,-5.7696,0,0,0,0,0,0,0,0,0,0,0,0,0,-5.729,-5.7176,-5.7427,-5.7444,-5.7447,-5.7559,-5.7561,-5.7564,-5.7559,-5.7556,-5.7553,-5.7551,-5.7681,-5.7689,-5.7697,-5.78,0,0,-5.7721,-5.7724,0,0,0,0,0,0,0,0,-5.7283,-5.7299,-5.744,-5.7443,-5.7447,-5.754,-5.7519,-5.7643,-5.7559,-5.7516,-5.7553,-5.7549,-5.7639,-5.765,-5.7681,-5.7806,-5.7812,-5.7721,-5.7726,-5.773,-5.7732,0,0,0,0,0,0,0,-5.7275,-5.7294,-5.748,-5.7442,-5.7446,-5.7445,-5.7459,-5.7542,-5.7591,-5.752,-5.752,-5.7536,-5.764,-5.7673,-5.7684,-5.7814,-5.7721,-5.7728,-5.7733,-5.7736,-5.8031,-5.8034,0,0,0,0,0,0,-5.7263,-5.7287,-5.7476,-5.7484,-5.7357,-5.7451,-5.7467,-5.7512,-5.759,-5.76,-5.7538,-5.7535,-5.7661,-5.7675,-5.7688,-5.7813,-5.773,-5.7737,-5.7741,-5.8028,-5.8031,-5.8035,0,0,0,0,0,0,-5.7258,-5.728,-5.747,-5.7385,-5.741,-5.7459,-5.751,-5.7517,-5.7549,-5.7604,-5.7612,-5.7563,-5.7659,-5.7677,-5.7772,-5.7818,-5.774,-5.7748,-5.8024,-5.8029,-5.8033,-5.8064,0,0,0,0,0,0,-5.725,-5.7278,-5.7318,-5.7386,-5.7414,-5.7552,-5.7513,-5.7521,-5.7563,-5.7561,-5.7629,-5.7638,-5.7659,-5.7761,-5.778,-5.7827,-5.7754,-5.802,-5.8026,-5.8032,-5.8059,-5.8069,-5.8078,0,0,0,0,0,-5.7241,-5.7321,-5.732,-5.7343,-5.7465,-5.7555,-5.7571,-5.7593,-5.7567,-5.7607,-5.7642,-5.7636,-5.7811,-5.7771,-5.7792,-5.7842,-5.8017,-5.8024,-5.8031,-5.8055,-5.8067,-5.8078,0,0,0,0,0,0,-5.7255,-5.733,-5.733,-5.7434,-5.7489,-5.7554,-5.7605,-5.7606,-5.7668,-5.7662,-5.7688,-5.7703,-5.7798,-5.783,-5.7784,-5.7946,-5.791,-5.7922,-5.7921,-5.7933,-5.7942,-5.7931,-5.776,0,0,0,0,0,-5.7271,-5.7338,-5.74,-5.7486,-5.7514,-5.7555,-5.7595,-5.7608,-5.7665,-5.7687,-5.7729,-5.7784,-5.7851,-5.7895,-5.796,-5.8065,-5.8079,-5.8111,-5.812,-5.8128,-5.8136,-5.8193,-5.8208,-5.8058,-5.8058,-5.8058,0,0,-5.7303,-5.7352,-5.7393,-5.7491,-5.7534,-5.7602,-5.7574,-5.7648,-5.7699,-5.7698,-5.779,-5.7824,-5.7886,-5.7987,-5.8033,-5.8017,-5.8181,-5.8136,-5.8142,-5.8147,-5.8202,-5.8216,-5.8229,-5.8063,-5.8062,-5.8061,0,0,-5.7396,-5.7441,-5.7517,-5.7562,-5.7629,-5.7656,-5.7675,-5.7741,-5.7763,-5.7856,-5.7857,-5.7919,-5.8034,-5.8078,-5.8116,-5.8229,-5.8224,-5.8249,-5.8297,-5.8352,-5.8364,-5.8374,-5.8412,-5.8426,-5.8259,-5.8259,-5.8259,0,-5.7426,-5.753,-5.7556,-5.763,-5.7672,-5.7678,-5.7755,-5.7797,-5.7881,-5.791,-5.7891,-5.8036,-5.8079,-5.8189,-5.8217,-5.8248,-5.8269,-5.8239,-5.8361,-5.8371,-5.8381,-5.8418,-5.8432,-5.8261,-5.8261,-5.8261,-5.826,0,-5.7564,-5.7636,-5.769,-5.7772,-5.7821,-5.7896,-5.7933,-5.7979,-5.7989,-5.8019,-5.8113,-5.8166,-5.8241,-5.8269,-5.8279,-5.8381,-5.8369,-5.8355,-5.8319,-5.8398,-5.8432,-5.8446,-5.8264,-5.8264,-5.8263,-5.8262,0,0,-5.7665,-5.7763,-5.7781,-5.7819,-5.7894,-5.795,-5.8026,-5.8101,-5.8139,-5.8199,-5.8261,-5.836,-5.8349,-5.8392,-5.8407,-5.8457,-5.854,-5.8437,-5.8439,-5.8452,-5.8654,-5.8661,-5.8677,-5.854,-5.8543,-5.8545,-5.8648,0,-5.7763,-5.7898,-5.7925,-5.8041,-5.8107,-5.8115,-5.8181,-5.8234,-5.8265,-5.8325,-5.8359,-5.8427,-5.8408,-5.8434,-5.8483,-5.8519,-5.858,-5.8513,-5.8596,-5.8599,-5.8577,-5.8695,-5.8703,-5.8798,-5.8662,-5.8664,-5.8666,0,-5.7895,-5.7958,-5.8081,-5.8148,-5.8177,-5.8236,-5.8307,-5.8365,-5.8426,-5.8445,-5.8494,-5.8504,-5.8583,-5.8547,-5.8654,-5.8608,-5.8645,-5.8668,-5.8672,-5.8678,-5.8634,-5.8701,-5.8829,-5.8841,-5.8688,-5.8686,-5.8685,0,-5.7953,-5.8069,-5.8158,-5.819,-5.8271,-5.8312,-5.8348,-5.8406,-5.8449,-5.8512,-5.854,-5.8611,-5.8648,-5.8703,-5.8732,-5.8703,-5.8837,-5.8803,-5.8853,-5.8852,-5.8878,-5.8875,-5.9009,-5.8907,-5.8907,-5.8907,-5.8907,0,-5.8058,-5.8132,-5.8185,-5.8239,-5.8323,-5.8353,-5.8435,-5.8471,-5.8523,-5.8583,-5.8596,-5.8652,-5.8689,-5.8751,-5.8775,-5.886,-5.8878,-5.8894,-5.8898,-5.8891,-5.8888,-5.8912,-5.8905,-5.8911,-5.891,-5.8909,-5.8908,0,-5.8135,-5.8173,-5.827,-5.834,-5.8359,-5.8418,-5.8477,-5.853,-5.8562,-5.8638,-5.8658,-5.8708,-5.8781,-5.8817,-5.8908,-5.8925,-5.902,-5.9022,-5.8999,-5.9,-5.9047,-5.9041,-5.9198,-5.922,-5.9106,-5.9107,-5.9108,0,-5.8197,-5.8255,-5.8331,-5.8373,-5.841,-5.8477,-5.8522,-5.8556,-5.8602,-5.8676,-5.872,-5.8794,-5.8855,-5.8973,-5.9016,-5.9086,-5.9088,-5.9139,-5.9098,-5.9089,-5.9085,-5.908,-5.9085,-5.9144,-5.9145,-5.9146,-5.9147,0,-5.8303,-5.832,-5.8384,-5.8456,-5.8509,-5.8567,-5.8624,-5.8657,-5.87,-5.8751,-5.8827,-5.8874,-5.8969,-5.9042,-5.9115,-5.9152,-5.9156,-5.916,-5.9175,-5.9165,-5.9149,-5.9156,-5.9015,-5.9155,-5.9154,-5.9154,-5.9153,-5.9153,-5.8372,-5.8424,-5.8486,-5.8557,-5.8604,-5.8657,-5.871,-5.8749,-5.8813,-5.8893,-5.8909,-5.8989,-5.905,-5.9149,-5.9188,-5.9251,-5.9239,-5.9261,-5.9266,-5.927,-5.9271,-5.9142,-5.9265,-5.9265,-5.9265,-5.9264,-5.9264,0,-5.8476,-5.8517,-5.8583,-5.8663,-5.8719,-5.8721,-5.8785,-5.8831,-5.8901,-5.8958,-5.9019,-5.9106,-5.9178,-5.9228,-5.9301,-5.9341,-5.9345,-5.9359,-5.9354,-5.9363,-5.9279,-5.9257,-5.9355,-5.9355,-5.9355,-5.9355,-5.9355,-5.9355,-5.8536,-5.8623,-5.8647,-5.8757,-5.8798,-5.8877,-5.8913,-5.8962,-5.9007,-5.9104,-5.9164,-5.9197,-5.9252,-5.9329,-5.9395,-5.9408,-5.9433,-5.9446,-5.9459,-5.9378,-5.9369,-5.9359,-5.9339,-5.9452,-5.9452,-5.9537,-5.9538,-5.9538]},{"header":{"parameterUnit":"m.s-1","parameterCategory":1,"la1":30.2991,"la2":30.254,"lo1":-89.0895,"lo2":-89.0444,"dy":0.0017,"dx":0.0017,"nx":28,"ny":28,"refTime":"2024-04-07T03:00:00:Z","depth":0,"parameterNumber":3,"parameterNumberName":"V-component_of_WINDS"},"data":[0,0,0,0,0,0,0,0,0,0,0,0,0,0,0,0,0,0,0,0,0,0,0,0,0,0,0,0,0,0,0,0,0,0,0,0,0,0,0,0,0,0,0,0,0,0,0,0,0,0,0,0,0,0,0,0,0,0,3.8217,3.8218,0,3.8331,3.8333,3.8334,3.8381,3.838,3.838,3.838,3.8495,3.8499,3.8502,0,0,0,0,0,0,0,0,0,0,0,0,0,3.8038,3.8041,3.8216,3.8218,3.8219,3.8331,3.8333,3.8334,3.8381,3.838,3.838,3.838,3.8494,3.8498,3.8502,0,0,0,0,0,0,0,0,0,0,0,0,0,3.8131,3.8042,3.8216,3.8256,3.8261,3.8331,3.8333,3.8335,3.8381,3.838,3.838,3.838,3.8493,3.8498,3.8503,3.8541,0,0,3.8518,3.852,0,0,0,0,0,0,0,0,3.8125,3.8137,3.8249,3.8253,3.8259,3.8341,3.8312,3.8404,3.8381,3.8335,3.838,3.8379,3.8444,3.8453,3.8476,3.8547,3.8552,3.8518,3.8521,3.8524,3.8525,0,0,0,0,0,0,0,3.8119,3.8132,3.8262,3.825,3.8256,3.8268,3.8281,3.833,3.839,3.8339,3.8343,3.8356,3.8447,3.8471,3.8479,3.8553,3.8518,3.8523,3.8526,3.8528,3.8665,3.8666,0,0,0,0,0,0,3.8106,3.8127,3.8258,3.8265,3.819,3.8272,3.8286,3.8315,3.839,3.8401,3.8356,3.8357,3.8462,3.8473,3.8483,3.8535,3.8524,3.8528,3.8531,3.8664,3.8665,3.8666,0,0,0,0,0,0,3.8102,3.8117,3.8254,3.8197,3.8215,3.8275,3.8308,3.8318,3.8341,3.8403,3.8414,3.8369,3.8462,3.8476,3.8527,3.8539,3.853,3.8535,3.8664,3.8665,3.8665,3.8638,0,0,0,0,0,0,3.8097,3.8115,3.813,3.8197,3.8218,3.8296,3.8308,3.832,3.835,3.8353,3.8418,3.8428,3.8463,3.852,3.8532,3.8546,3.8539,3.8663,3.8664,3.8665,3.8638,3.8637,3.8637,0,0,0,0,0,3.809,3.8117,3.8131,3.8146,3.8238,3.8296,3.8308,3.8348,3.8351,3.8367,3.8407,3.8426,3.8536,3.8524,3.8539,3.8555,3.8662,3.8664,3.8665,3.8638,3.8637,3.8637,0,0,0,0,0,0,3.8048,3.8126,3.8142,3.8191,3.8237,3.8304,3.8325,3.8346,3.8392,3.8392,3.844,3.8454,3.8502,3.8534,3.8519,3.8597,3.8601,3.8605,3.8575,3.8575,3.8575,3.8567,3.8543,0,0,0,0,0,3.8045,3.8086,3.8152,3.8188,3.8211,3.8264,3.8291,3.8318,3.8367,3.8386,3.843,3.8476,3.8522,3.855,3.8595,3.8643,3.8659,3.8661,3.8661,3.866,3.8664,3.8694,3.8696,3.8671,3.8671,3.8671,0,0,3.8038,3.8086,3.8108,3.8181,3.822,3.8262,3.828,3.8322,3.8354,3.8392,3.8444,3.8478,3.8533,3.8584,3.8608,3.8611,3.8675,3.8662,3.8661,3.8665,3.8696,3.8698,3.87,3.8672,3.8672,3.8671,0,0,3.8047,3.8086,3.8123,3.8162,3.8221,3.8257,3.8265,3.833,3.8354,3.8407,3.8438,3.8477,3.8553,3.8592,3.8621,3.8649,3.867,3.8662,3.8661,3.869,3.8692,3.8694,3.8706,3.8709,3.8665,3.8665,3.8665,0,3.8031,3.8095,3.8139,3.8181,3.8213,3.8252,3.829,3.8325,3.8395,3.8417,3.842,3.8519,3.8558,3.862,3.8627,3.8649,3.8662,3.8655,3.8689,3.8691,3.8694,3.8705,3.8709,3.8664,3.8664,3.8665,3.8665,0,3.8073,3.8117,3.814,3.8208,3.8243,3.8283,3.8333,3.8363,3.8389,3.8424,3.8479,3.8529,3.8586,3.8602,3.8626,3.8668,3.8668,3.8679,3.8684,3.8694,3.8706,3.871,3.8663,3.8663,3.8663,3.8664,0,0,3.8057,3.8151,3.8159,3.8192,3.8261,3.8296,3.8339,3.8396,3.8421,3.8469,3.8507,3.8572,3.8584,3.8618,3.8647,3.8672,3.8694,3.8681,3.8683,3.8683,3.8745,3.8737,3.8741,3.8708,3.8709,3.871,3.8741,0,3.8076,3.8154,3.8196,3.8256,3.8299,3.8338,3.8375,3.8422,3.8457,3.8499,3.8538,3.8585,3.8595,3.8617,3.8643,3.8685,3.8707,3.8684,3.8744,3.8746,3.873,3.8747,3.8738,3.8765,3.8746,3.8746,3.8747,0,3.8108,3.8157,3.8222,3.8289,3.8309,3.8342,3.8399,3.8438,3.8493,3.8517,3.8557,3.8586,3.8634,3.8635,3.8702,3.8685,3.8713,3.8738,3.874,3.8747,3.8747,3.8756,3.8774,3.8778,3.8754,3.8754,3.8753,0,3.8091,3.8174,3.8224,3.8251,3.833,3.8353,3.8387,3.8441,3.8474,3.8524,3.8546,3.86,3.863,3.8672,3.8716,3.8713,3.878,3.8784,3.8802,3.8801,3.8814,3.8812,3.8838,3.883,3.883,3.883,3.883,0,3.8108,3.8147,3.8218,3.8249,3.8294,3.8343,3.8387,3.8424,3.8473,3.8512,3.8549,3.8585,3.8641,3.8685,3.872,3.8771,3.8784,3.8805,3.8814,3.8803,3.88,3.8821,3.8821,3.8831,3.8831,3.8831,3.8831,0,3.8096,3.8146,3.8204,3.8275,3.8294,3.8324,3.8386,3.8418,3.8456,3.8506,3.8521,3.8581,3.8635,3.8683,3.8754,3.8777,3.883,3.8841,3.8812,3.8817,3.8832,3.8831,3.8873,3.8881,3.8867,3.8867,3.8867,0,3.8104,3.8135,3.8211,3.8241,3.8275,3.8321,3.8356,3.8406,3.844,3.8507,3.8532,3.8588,3.8636,3.8721,3.8771,3.8826,3.8839,3.885,3.8847,3.8835,3.8841,3.8839,3.8843,3.8849,3.8849,3.8849,3.8849,0,3.8113,3.8137,3.8185,3.8243,3.8283,3.833,3.8379,3.8401,3.8461,3.8498,3.8554,3.8591,3.8665,3.8722,3.8783,3.8819,3.8845,3.885,3.8857,3.8845,3.8828,3.8839,3.8812,3.8848,3.8848,3.8849,3.8849,3.8849,3.8113,3.8143,3.8202,3.8255,3.8298,3.8343,3.8378,3.8422,3.847,3.8534,3.8561,3.8619,3.8676,3.8761,3.8797,3.8844,3.8849,3.8858,3.8861,3.8863,3.8862,3.8821,3.8855,3.8855,3.8855,3.8855,3.8855,0,3.8125,3.8165,3.8214,3.8282,3.8324,3.8346,3.8402,3.8436,3.8487,3.8538,3.8586,3.8652,3.8708,3.8763,3.8822,3.8849,3.8863,3.8863,3.8862,3.887,3.8853,3.8842,3.8851,3.8851,3.8851,3.8851,3.8851,3.8851,3.8136,3.8189,3.8221,3.8296,3.8337,3.8395,3.8425,3.8468,3.8509,3.8582,3.8629,3.8665,3.872,3.8784,3.8836,3.8851,3.8872,3.8869,3.8888,3.8871,3.8871,3.8871,3.886,3.8873,3.8873,3.8901,3.8901,3.8901]}]]